Weather History for St. Augustine, FL

Change the Weather History Date:

Thursday, June 13, 2013

  Actual Average Record
Temperature  
Mean Temperature 85 °F -  
Max Temperature 95 °F 84 °F 98 °F (1998)
Min Temperature 75 °F 70 °F 67 °F (1978)
Cooling Degree Days 20    
Growing Degree Days 35 (Base 50)    
Moisture  
Dew Point 73 °F    
Average Humidity 69    
Maximum Humidity 94    
Minimum Humidity 43    
Precipitation  
Precipitation 0.00 in - - ()
Sea Level Pressure  
Sea Level Pressure 29.95 in    
Wind  
Wind Speed 9 mph (WSW)    
Max Wind Speed 12 mph    
Max Gust Speed 18 mph    
Visibility 10 miles    
Events      
Averages and records for this station are not official NWS values.
T = Trace of Precipitation, MM = Missing Value Source: NWS Daily Summary

Daily Weather History Graph

Daily Weather History Graph

Search for Another Location

Airport:

Trip Planner

Search our weather history database for the weather conditions in past years. The results will help you decide how hot, cold, wet, or windy it might be!

Date:

Astronomy

Jun. 13, 2013 Rise Set
Actual Time 6:23 AM EDT 8:27 PM EDT
Civil Twilight 5:56 AM EDT 8:54 PM EDT
Nautical Twilight 5:23 AM EDT 9:27 PM EDT
Astronomical Twilight 4:47 AM EDT 10:03 PM EDT
Moon 10:43 AM EDT (6/13) 11:51 PM EDT (6/13)
Length of Visible Light 14h 58m
Length of Day
14h 03m
Waxing Crescent, 21% of the Moon is Illuminated
Jun 13
Waxing Crescent
Jun 16
First Quarter
Jun 23
Full
Jun 30
Last Quarter
Jul 8
New

Hourly Weather History & Observations

Time (EDT) Temp. Heat Index Dew Point Humidity Pressure Visibility Wind Dir Wind Speed Gust Speed Precip Events Conditions
12:58 AM 81.0 °F 85.8 °F 73.0 °F 77% 30.01 in 10.0 mi SSW 9.2 mph - N/A   Unknown
1:58 AM 79.0 °F - 73.0 °F 82% 30.00 in 10.0 mi SW 9.2 mph - N/A   Unknown
2:58 AM 79.0 °F - 73.9 °F 84% 29.98 in 10.0 mi WSW 9.2 mph - N/A   Unknown
3:58 AM 78.1 °F - 73.9 °F 87% 29.97 in 10.0 mi WSW 9.2 mph - N/A   Unknown
4:58 AM 77.0 °F - 73.9 °F 90% 29.97 in 10.0 mi WSW 6.9 mph - N/A   Unknown
5:58 AM 77.0 °F - 73.9 °F 90% 29.99 in 10.0 mi WSW 6.9 mph - N/A   Unknown
6:58 AM 75.9 °F - 73.9 °F 94% 30.00 in 10.0 mi WSW 8.1 mph - N/A   Unknown
7:58 AM 79.0 °F - 75.0 °F 88% 30.01 in 10.0 mi WSW 9.2 mph - N/A   Unknown
8:58 AM 82.9 °F 90.2 °F 75.0 °F 77% 30.01 in 10.0 mi West 10.4 mph - N/A   Unknown
9:58 AM 86.0 °F 95.1 °F 75.0 °F 70% 30.01 in 10.0 mi WNW 11.5 mph - N/A   Clear
10:58 AM 88.0 °F 96.5 °F 73.9 °F 63% 30.00 in 10.0 mi West 11.5 mph - N/A   Clear
11:58 AM 91.0 °F 99.3 °F 73.0 °F 55% 29.99 in 10.0 mi WSW 11.5 mph - N/A   Unknown
12:58 PM 91.9 °F 100.7 °F 73.0 °F 54% 29.97 in 10.0 mi SW 9.2 mph - N/A   Unknown
1:58 PM 93.0 °F 99.0 °F 70.0 °F 47% 29.95 in 10.0 mi SW 9.2 mph 16.1 mph N/A   Scattered Clouds
2:58 PM 93.9 °F 102.1 °F 72.0 °F 49% 29.92 in 10.0 mi SSW 10.4 mph 18.4 mph N/A   Scattered Clouds
3:58 PM 95.0 °F 100.7 °F 69.1 °F 43% 29.90 in 10.0 mi SW 11.5 mph 18.4 mph N/A   Partly Cloudy
4:58 PM 91.9 °F 96.9 °F 69.1 °F 47% 29.89 in 5.0 mi SSW 10.4 mph - N/A   Haze
5:58 PM 90.0 °F 96.4 °F 71.1 °F 54% 29.88 in 5.0 mi SW 4.6 mph - N/A   Haze
6:58 PM 89.1 °F 96.0 °F 72.0 °F 57% 29.87 in 10.0 mi SW 4.6 mph - N/A   Clear
7:58 PM 88.0 °F 95.6 °F 73.0 °F 61% 29.88 in 10.0 mi West 4.6 mph - N/A   Clear
8:58 PM 84.9 °F 92.1 °F 73.9 °F 69% 29.89 in 10.0 mi WSW 3.5 mph - N/A   Unknown
9:58 PM 84.0 °F 89.6 °F 72.0 °F 67% 29.89 in 10.0 mi WSW 5.8 mph - N/A   Unknown
10:58 PM 82.0 °F 86.7 °F 72.0 °F 71% 29.91 in 10.0 mi WSW 8.1 mph - N/A   Unknown
11:58 PM 80.1 °F 83.8 °F 72.0 °F 76% 29.90 in 10.0 mi SW 8.1 mph - N/A   Unknown